Notices

What's New in latest Release from April 7th, 2021:

- Updated Glossary, including Speed of Maximum Gust, and Total Hourly Precipitation

- Updated national and regional climate services offices contacts and prices information

- Addition of station inventory lists for 1981-2010, 1971-2000, and 1961-1990 Normals.

If you haven't already, please take our survey and provide feedback about our website: https://eccc.sondage-survey.ca/f/LanguageSelection.aspx?s=442ca660-fcf1-47c0-95a9-59707d6fd709

Hourly Data Report for March 09, 2020

MIRAMICHI RCS
NEW BRUNSWICK
Current Station Operator: ECCC - MSC

47°00'34.000" N
65°27'54.000" W
33.00 m
8100989
71744
ACQ

Download Data

Hourly Data (March 2020)
Hourly Data Report for March 9, 2020
TIME
LST
Temp Definition
°C
Dew Point Definition
°C
Rel Hum Definition
%
Precip. Amount Definition
mm

Wind Dir Definition
10's deg

Wind Spd Definition
km/h
Visibility Definition
km
Stn Press Definition
kPa
Hmdx Definition


Wind Chill Definition


Weather Definition


00:00 -2.7 -11.9 49 LegendMM 33 3   101.77   -4 LegendNANA
01:00 -2.8 -16.5 34 LegendMM 34 5   101.84   -5 LegendNANA
02:00 -2.8 -17.2 32 LegendMM 34 8   101.88   -6 LegendNANA
03:00 -3.2 -16.1 36 LegendMM 35 6   101.88   -6 LegendNANA
04:00 -3.9 -13.1 49 LegendMM 35 9   101.92   -8 LegendNANA
05:00 -5.8 -9.3 76 LegendMM 36 7   102.03   -9 LegendNANA
06:00 -6.4 -8.4 86 LegendMM 2 6   102.06   -9 LegendNANA
07:00 -6.9 -8.4 89 LegendMM 3 5   102.10   -9 LegendNANA
08:00 -7.6 -9.3 87 LegendMM 7 11   102.16   -13 LegendNANA
09:00 -7.3 -9.3 86 LegendMM 6 14   102.20   -13 LegendNANA
10:00 -7.1 -9.6 82 LegendMM 6 17   102.21   -14 LegendNANA
11:00 -6.8 -9.3 82 LegendMM 6 16   102.25   -13 LegendNANA
12:00 -6.6 -9.6 79 LegendMM 7 19   102.26   -13 LegendNANA
13:00 -5.7 -8.7 79 LegendMM 7 16   102.26   -12 LegendNANA
14:00 -5.9 -9.1 78 LegendMM 7 22   102.25   -13 LegendNANA
15:00 -6.4 -9.8 77 LegendMM 7 18   102.27   -13 LegendNANA
16:00 -6.6 -10.3 75 LegendMM 7 16   102.26   -13 LegendNANA
17:00 -7.2 -10.6 77 LegendMM 9 14   102.30   -13 LegendNANA
18:00 -7.0 -10.3 78 LegendMM 11 11   102.32   -12 LegendNANA
19:00 -7.4 -10.8 77 LegendMM 12 10   102.39   -12 LegendNANA
20:00 -7.6 -10.5 80 LegendMM 8 9   102.43   -12 LegendNANA
21:00 -7.8 -10.1 84 LegendMM 8 7   102.44   -11 LegendNANA
22:00 -7.9 -9.6 88 LegendMM 7 7   102.47   -12 LegendNANA
23:00 -7.9 -9.5 88 LegendMM 8 11   102.48   -13 LegendNANA

Notes on Data Quality.

Legend

  • E = Estimated
  • M = Missing
  • NA = Not Available*
  • [empty] = Indicates an unobserved value
Date modified: